| time (UTC) | temp F | wind direction | speed MPH | gust MPH | rain 1hr in | rain 24hr in | rain mn in | humidity % | barometer mb |
| 20260510142953 | 80 | 21 | 3.0 | 9.0 | 0.00 | 0.20 | 0.00 | 91 | 1014.1 |
| 20260510142427 | 80 | 83 | 4.0 | 9.0 | 0.00 | 0.20 | 0.00 | 90 | 1014.1 |
| 20260510141902 | 80 | 30 | 5.0 | 9.0 | 0.00 | 0.20 | 0.00 | 91 | 1014.2 |
| 20260510141607 | 80 | 51 | 4.0 | 10.0 | 0.00 | 0.20 | 0.00 | 92 | 1014.2 |
| 20260510140830 | 80 | 66 | 4.0 | 10.0 | 0.00 | 0.20 | 0.00 | 92 | 1014.2 |
| 20260510140327 | 79 | 52 | 4.0 | 9.0 | 0.00 | 0.20 | 0.00 | 93 | 1014.1 |
| 20260510135803 | 79 | 77 | 5.0 | 11.0 | 0.00 | 0.20 | 0.00 | 94 | 1013.9 |
| 20260510135234 | 78 | 72 | 4.0 | 8.0 | 0.00 | 0.20 | 0.00 | 94 | 1013.9 |
| 20260510134712 | 78 | 65 | 4.0 | 8.0 | 0.00 | 0.20 | 0.00 | 96 | 1013.8 |
| 20260510134436 | 78 | 48 | 3.0 | 8.0 | 0.00 | 0.20 | 0.00 | 96 | 1013.6 |
| 20260510133910 | 77 | 27 | 3.0 | 8.0 | 0.00 | 0.20 | 0.00 | 97 | 1013.8 |
| 20260510133112 | 77 | 74 | 3.0 | 7.0 | 0.00 | 0.20 | 0.00 | 97 | 1013.7 |
| 20260510132841 | 77 | 39 | 3.0 | 6.0 | 0.00 | 0.20 | 0.00 | 97 | 1013.7 |
| 20260510132045 | 76 | 56 | 2.0 | 5.0 | 0.00 | 0.20 | 0.00 | 97 | 1013.6 |
| 20260510131539 | 76 | 56 | 2.0 | 5.0 | 0.00 | 0.20 | 0.00 | 97 | 1013.5 |
| 20260510131013 | 76 | 59 | 2.0 | 5.0 | 0.00 | 0.20 | 0.00 | 97 | 1013.4 |
| 20260510130741 | 76 | 72 | 2.0 | 5.0 | 0.00 | 0.20 | 0.00 | 97 | 1013.3 |
| 20260510125942 | 76 | 75 | 1.0 | 4.0 | 0.00 | 0.20 | 0.00 | 97 | 1013.2 |
| 20260510125438 | 76 | 81 | 2.0 | 4.0 | 0.00 | 0.20 | 0.00 | 97 | 1013.1 |
| 20260510124912 | 76 | 83 | 2.0 | 4.0 | 0.00 | 0.20 | 0.00 | 97 | 1013.0 |
| 20260510124348 | 76 | 85 | 2.0 | 4.0 | 0.00 | 0.20 | 0.00 | 97 | 1013.0 |
| 20260510124050 | 76 | 100 | 1.0 | 4.0 | 0.00 | 0.20 | 0.00 | 97 | 1012.9 |
| 20260510123254 | 76 | 107 | 1.0 | 4.0 | 0.00 | 0.20 | 0.00 | 97 | 1012.7 |
| 20260510122729 | 76 | 110 | 1.0 | 3.0 | 0.00 | 0.20 | 0.00 | 96 | 1012.6 |
| 20260510122207 | 76 | 123 | 1.0 | 3.0 | 0.00 | 0.20 | 0.00 | 96 | 1012.4 |
| 20260510121636 | 76 | 123 | 1.0 | 4.0 | 0.00 | 0.20 | 0.00 | 96 | 1012.4 |
| 20260510121137 | 76 | 123 | 1.0 | 4.0 | 0.00 | 0.20 | 0.00 | 96 | 1012.3 |
| 20260510120606 | 76 | 134 | 1.0 | 3.0 | 0.00 | 0.20 | 0.00 | 96 | 1012.2 |
| 20260510120103 | 76 | 135 | 0.0 | 2.0 | 0.00 | 0.20 | 0.00 | 96 | 1011.9 |
| 20260510120055 | 76 | 135 | 1.0 | 5.0 | 0.00 | 0.20 | 0.00 | 96 | 1011.8 |
| 20260510115050 | 76 | 135 | 2.0 | 5.0 | 0.00 | 0.20 | 0.00 | 96 | 1011.7 |
| 20260510114756 | 76 | 135 | 1.0 | 3.0 | 0.00 | 0.20 | 0.00 | 96 | 1011.5 |
| 20260510113956 | 76 | 135 | 1.0 | 5.0 | 0.00 | 0.20 | 0.00 | 96 | 1011.4 |
| 20260510113453 | 76 | 135 | 1.0 | 5.0 | 0.00 | 0.20 | 0.00 | 96 | 1011.4 |
| 20260510112949 | 76 | 145 | 1.0 | 3.0 | 0.00 | 0.20 | 0.00 | 96 | 1011.3 |
| 20260510112422 | 76 | 140 | 1.0 | 4.0 | 0.00 | 0.20 | 0.00 | 96 | 1011.2 |
| 20260510112151 | 76 | 164 | 2.0 | 7.0 | 0.00 | 0.20 | 0.00 | 96 | 1011.1 |
| 20260510111414 | 76 | 164 | 2.0 | 7.0 | 0.00 | 0.20 | 0.00 | 96 | 1011.0 |
| 20260510110911 | 76 | 161 | 2.0 | 5.0 | 0.00 | 0.20 | 0.00 | 96 | 1010.9 |
| 20260510110409 | 76 | 190 | 2.0 | 6.0 | 0.00 | 0.20 | 0.00 | 96 | 1010.8 |
| 20260510105909 | 76 | 164 | 1.0 | 6.0 | 0.00 | 0.20 | 0.00 | 96 | 1010.8 |
| 20260510105616 | 76 | 136 | 1.0 | 5.0 | 0.00 | 0.20 | 0.00 | 96 | 1010.7 |
| 20260510104843 | 75 | 208 | 1.0 | 6.0 | 0.00 | 0.20 | 0.00 | 96 | 1010.7 |
| 20260510104345 | 75 | 210 | 1.0 | 6.0 | 0.00 | 0.20 | 0.00 | 96 | 1010.6 |
| 20260510104119 | 75 | 142 | 1.0 | 3.0 | 0.00 | 0.20 | 0.00 | 96 | 1010.7 |
| 20260510103613 | 75 | 142 | 1.0 | 4.0 | 0.00 | 0.20 | 0.00 | 96 | 1010.6 |
| 20260510103113 | 75 | 143 | 2.0 | 5.0 | 0.00 | 0.20 | 0.00 | 96 | 1010.5 |
| 20260510102611 | 75 | 181 | 2.0 | 5.0 | 0.00 | 0.20 | 0.00 | 96 | 1010.5 |
| 20260510101815 | 75 | 141 | 2.0 | 7.0 | 0.00 | 0.20 | 0.00 | 96 | 1010.5 |
| 20260510101314 | 76 | 156 | 3.0 | 8.0 | 0.00 | 0.20 | 0.00 | 96 | 1010.4 |
| 20260510100757 | 75 | 179 | 3.0 | 8.0 | 0.00 | 0.20 | 0.00 | 97 | 1010.4 |
| 20260510100255 | 75 | 154 | 3.0 | 10.0 | 0.00 | 0.20 | 0.00 | 97 | 1010.4 |
| 20260510095735 | 75 | 231 | 3.0 | 10.0 | 0.00 | 0.20 | 0.00 | 97 | 1010.4 |
| 20260510095230 | 75 | 193 | 3.0 | 8.0 | 0.00 | 0.20 | 0.00 | 97 | 1010.3 |
| 20260510095003 | 75 | 187 | 4.0 | 10.0 | 0.00 | 0.20 | 0.00 | 97 | 1010.2 |
| 20260510094228 | 75 | 160 | 4.0 | 10.0 | 0.00 | 0.20 | 0.00 | 98 | 1010.2 |
| 20260510093729 | 75 | 210 | 3.0 | 8.0 | 0.00 | 0.20 | 0.00 | 98 | 1010.2 |
| 20260510093441 | 75 | 145 | 3.0 | 8.0 | 0.00 | 0.20 | 0.00 | 98 | 1010.2 |
| 20260510092707 | 75 | 176 | 4.0 | 7.0 | 0.00 | 0.20 | 0.00 | 98 | 1010.2 |
| 20260510092210 | 75 | 212 | 3.0 | 10.0 | 0.00 | 0.20 | 0.00 | 98 | 1010.3 |
| 20260510091646 | 75 | 183 | 4.0 | 10.0 | 0.00 | 0.20 | 0.00 | 98 | 1010.2 |
| 20260510091143 | 75 | 177 | 5.0 | 11.0 | 0.00 | 0.20 | 0.00 | 98 | 1010.3 |
| 20260510090641 | 75 | 157 | 4.0 | 11.0 | 0.00 | 0.20 | 0.00 | 98 | 1010.3 |
| 20260510090115 | 75 | 145 | 3.0 | 9.0 | 0.00 | 0.20 | 0.00 | 98 | 1010.3 |
| 20260510085614 | 75 | 157 | 2.0 | 6.0 | 0.00 | 0.20 | 0.00 | 98 | 1010.3 |
| 20260510085050 | 75 | 153 | 2.0 | 5.0 | 0.00 | 0.20 | 0.00 | 98 | 1010.3 |
| 20260510084752 | 75 | 164 | 2.0 | 5.0 | 0.00 | 0.20 | 0.00 | 97 | 1010.4 |
| 20260510083956 | 75 | 125 | 1.0 | 4.0 | 0.00 | 0.20 | 0.00 | 97 | 1010.4 |
| 20260510083450 | 75 | 120 | 1.0 | 4.0 | 0.00 | 0.20 | 0.00 | 97 | 1010.4 |
| 20260510082949 | 75 | 119 | 1.0 | 6.0 | 0.00 | 0.20 | 0.00 | 97 | 1010.4 |
| 20260510082421 | 75 | 118 | 1.0 | 6.0 | 0.00 | 0.20 | 0.00 | 97 | 1010.5 |
| 20260510081917 | 75 | 141 | 1.0 | 5.0 | 0.00 | 0.20 | 0.00 | 97 | 1010.5 |
| 20260510081415 | 75 | 149 | 2.0 | 7.0 | 0.00 | 0.20 | 0.00 | 97 | 1010.5 |
| 20260510080911 | 75 | 131 | 2.0 | 7.0 | 0.00 | 0.20 | 0.00 | 96 | 1010.5 |
| 20260510080408 | 75 | 160 | 1.0 | 5.0 | 0.00 | 0.20 | 0.00 | 96 | 1010.4 |
| 20260510075841 | 75 | 160 | 1.0 | 5.0 | 0.00 | 0.20 | 0.00 | 96 | 1010.4 |
| 20260510075338 | 75 | 170 | 1.0 | 5.0 | 0.00 | 0.20 | 0.00 | 96 | 1010.4 |
| 20260510074811 | 75 | 174 | 1.0 | 7.0 | 0.00 | 0.20 | 0.00 | 96 | 1010.4 |
| 20260510074539 | 75 | 139 | 1.0 | 7.0 | 0.00 | 0.20 | 0.00 | 96 | 1010.4 |
| 20260510073745 | 75 | 172 | 1.0 | 8.0 | 0.00 | 0.20 | 0.00 | 96 | 1010.3 |
| 20260510073216 | 75 | 172 | 3.0 | 8.0 | 0.00 | 0.20 | 0.00 | 96 | 1010.3 |
| 20260510072650 | 75 | 143 | 3.0 | 9.0 | 0.00 | 0.20 | 0.00 | 96 | 1010.2 |
| 20260510072124 | 75 | 134 | 3.0 | 7.0 | 0.00 | 0.20 | 0.00 | 96 | 1010.3 |
| 20260510071559 | 75 | 149 | 3.0 | 11.0 | 0.00 | 0.20 | 0.00 | 96 | 1010.4 |
| 20260510071303 | 75 | 168 | 3.0 | 10.0 | 0.00 | 0.20 | 0.00 | 96 | 1010.4 |
| 20260510070504 | 76 | 145 | 2.0 | 7.0 | 0.00 | 0.20 | 0.00 | 97 | 1010.5 |
| 20260510065937 | 76 | 166 | 2.0 | 7.0 | 0.00 | 0.20 | 0.00 | 97 | 1010.5 |
| 20260510065435 | 76 | 164 | 1.0 | 4.0 | 0.00 | 0.20 | 0.00 | 97 | 1010.5 |
| 20260510064932 | 76 | 158 | 2.0 | 7.0 | 0.00 | 0.20 | 0.00 | 97 | 1010.5 |
| 20260510064405 | 76 | 157 | 2.0 | 7.0 | 0.00 | 0.20 | 0.00 | 97 | 1010.5 |
| 20260510063902 | 76 | 156 | 1.0 | 6.0 | 0.00 | 0.20 | 0.00 | 97 | 1010.5 |
| 20260510063335 | 76 | 173 | 1.0 | 7.0 | 0.00 | 0.20 | 0.00 | 97 | 1010.5 |
| 20260510062832 | 76 | 173 | 1.0 | 7.0 | 0.00 | 0.20 | 0.00 | 96 | 1010.5 |
| 20260510062330 | 76 | 108 | 2.0 | 7.0 | 0.00 | 0.20 | 0.00 | 96 | 1010.4 |
| 20260510061826 | 76 | 133 | 3.0 | 10.0 | 0.00 | 0.20 | 0.00 | 96 | 1010.5 |
| 20260510061300 | 76 | 135 | 4.0 | 10.0 | 0.00 | 0.20 | 0.00 | 96 | 1010.5 |
| 20260510060756 | 76 | 156 | 4.0 | 11.0 | 0.00 | 0.20 | 0.00 | 96 | 1010.5 |
| 20260510060231 | 76 | 137 | 4.0 | 11.0 | 0.00 | 0.20 | 0.00 | 95 | 1010.6 |
| 20260510055934 | 76 | 154 | 3.0 | 11.0 | 0.00 | 0.20 | 0.00 | 95 | 1010.5 |
| 20260510055200 | 76 | 140 | 3.0 | 9.0 | 0.00 | 0.20 | 0.00 | 95 | 1010.5 |
| 20260510054907 | 76 | 119 | 4.0 | 9.0 | 0.00 | 0.20 | 0.00 | 95 | 1010.6 |
| 20260510054111 | 76 | 117 | 5.0 | 15.0 | 0.00 | 0.20 | 0.00 | 95 | 1010.7 |
| 20260510053544 | 76 | 133 | 6.0 | 15.0 | 0.00 | 0.20 | 0.00 | 95 | 1010.7 |
| 20260510053041 | 76 | 127 | 5.0 | 13.0 | 0.00 | 0.20 | 0.00 | 95 | 1010.7 |
| 20260510052540 | 76 | 154 | 4.0 | 14.0 | 0.00 | 0.20 | 0.00 | 95 | 1010.8 |
| 20260510052029 | 77 | 122 | 3.0 | 14.0 | 0.00 | 0.20 | 0.00 | 96 | 1010.9 |
| 20260510051800 | 77 | 130 | 3.0 | 9.0 | 0.00 | 0.20 | 0.00 | 96 | 1010.9 |
| 20260510051004 | 77 | 137 | 4.0 | 11.0 | 0.00 | 0.20 | 0.00 | 96 | 1010.9 |
| 20260510050505 | 77 | 123 | 4.0 | 11.0 | 0.00 | 0.20 | 0.00 | 96 | 1010.9 |
| 20260510050443 | 77 | 110 | 3.0 | 11.0 | 0.00 | 0.20 | 0.20 | 96 | 1010.8 |
| 20260510045440 | 77 | 141 | 3.0 | 11.0 | 0.00 | 0.20 | 0.20 | 96 | 1010.9 |
| 20260510044913 | 77 | 128 | 3.0 | 11.0 | 0.00 | 0.20 | 0.20 | 96 | 1010.9 |
| 20260510044409 | 76 | 105 | 3.0 | 8.0 | 0.00 | 0.20 | 0.20 | 95 | 1011.0 |
| 20260510043845 | 76 | 134 | 3.0 | 9.0 | 0.00 | 0.20 | 0.20 | 95 | 1011.1 |
| 20260510043317 | 76 | 93 | 3.0 | 10.0 | 0.00 | 0.20 | 0.20 | 95 | 1011.1 |
| 20260510042815 | 76 | 87 | 3.0 | 10.0 | 0.00 | 0.20 | 0.20 | 95 | 1011.1 |
| 20260510042311 | 76 | 89 | 3.0 | 9.0 | 0.00 | 0.20 | 0.20 | 95 | 1011.2 |
| 20260510041808 | 76 | 119 | 2.0 | 9.0 | 0.00 | 0.20 | 0.20 | 95 | 1011.4 |
| 20260510041241 | 76 | 70 | 2.0 | 9.0 | 0.00 | 0.20 | 0.20 | 95 | 1011.4 |
| 20260510040738 | 76 | 104 | 3.0 | 9.0 | 0.00 | 0.20 | 0.20 | 95 | 1011.3 |
| 20260510040226 | 76 | 88 | 4.0 | 9.0 | 0.00 | 0.20 | 0.20 | 95 | 1011.2 |
| 20260510035729 | 76 | 117 | 4.0 | 9.0 | 0.00 | 0.20 | 0.20 | 95 | 1011.1 |
| 20260510035201 | 76 | 135 | 4.0 | 9.0 | 0.00 | 0.20 | 0.20 | 95 | 1010.9 |
| 20260510034658 | 76 | 139 | 3.0 | 8.0 | 0.00 | 0.20 | 0.20 | 96 | 1011.0 |
| 20260510034131 | 76 | 125 | 2.0 | 6.0 | 0.00 | 0.20 | 0.20 | 96 | 1011.0 |
| 20260510033631 | 76 | 93 | 2.0 | 7.0 | 0.00 | 0.20 | 0.20 | 96 | 1011.1 |
| 20260510033107 | 77 | 88 | 5.0 | 12.0 | 0.00 | 0.20 | 0.20 | 96 | 1011.3 |
| 20260510033102 | 76 | 91 | 5.0 | 12.0 | 0.00 | 0.20 | 0.20 | 96 | 1011.3 |
| 20260510032031 | 77 | 88 | 3.0 | 10.0 | 0.00 | 0.20 | 0.20 | 96 | 1011.2 |
| 20260510031511 | 77 | 82 | 4.0 | 10.0 | 0.00 | 0.20 | 0.20 | 96 | 1011.2 |
| 20260510031443 | 77 | 88 | 4.0 | 12.0 | 0.00 | 0.20 | 0.20 | 96 | 1011.2 |
| 20260510030435 | 77 | 94 | 6.0 | 14.0 | 0.00 | 0.20 | 0.20 | 96 | 1011.2 |
| 20260510025910 | 77 | 75 | 7.0 | 17.0 | 0.00 | 0.20 | 0.20 | 96 | 1011.2 |
| 20260510025405 | 77 | 117 | 8.0 | 17.0 | 0.00 | 0.20 | 0.20 | 97 | 1011.1 |
| 20260510024902 | 77 | 67 | 8.0 | 17.0 | 0.00 | 0.20 | 0.20 | 97 | 1011.0 |
| 20260510024610 | 77 | 40 | 7.0 | 17.0 | 0.00 | 0.20 | 0.20 | 97 | 1010.9 |
| 20260510024116 | 74 | 125 | 2.0 | 6.0 | 0.00 | 0.20 | 0.20 | 97 | 1010.1 |
| 20260510024111 | 74 | 85 | 2.0 | 5.0 | 0.00 | 0.20 | 0.20 | 96 | 1010.2 |
| 20260510024107 | 74 | 133 | 2.0 | 8.0 | 0.00 | 0.20 | 0.20 | 97 | 1010.1 |
| 20260510024049 | 76 | 108 | 5.0 | 14.0 | 0.00 | 0.20 | 0.20 | 97 | 1010.7 |
| 20260510024007 | 74 | 84 | 3.0 | 9.0 | 0.00 | 0.20 | 0.20 | 96 | 1010.5 |
| 20260510022017 | 74 | 125 | 2.0 | 6.0 | 0.00 | 0.20 | 0.20 | 97 | 1010.1 |
| 20260510021221 | 74 | 128 | 3.0 | 9.0 | 0.00 | 0.20 | 0.20 | 98 | 1010.0 |
| 20260510020721 | 74 | 124 | 2.0 | 9.0 | 0.00 | 0.20 | 0.20 | 98 | 1009.8 |
| 20260510020154 | 75 | 137 | 1.0 | 4.0 | 0.00 | 0.20 | 0.20 | 99 | 1009.7 |
| 20260510015641 | 75 | 140 | 1.0 | 4.0 | 0.00 | 0.20 | 0.20 | 99 | 1009.4 |
| 20260510015140 | 75 | 140 | 0.0 | 1.0 | 0.00 | 0.20 | 0.20 | 99 | 1009.3 |
| 20260510014638 | 75 | 141 | 1.0 | 3.0 | 0.00 | 0.20 | 0.20 | 99 | 1009.2 |
| 20260510014138 | 75 | 140 | 1.0 | 3.0 | 0.00 | 0.20 | 0.20 | 99 | 1009.0 |
| 20260510013614 | 75 | 176 | 0.0 | 2.0 | 0.00 | 0.20 | 0.20 | 99 | 1008.8 |
| 20260510013103 | 74 | 209 | 0.0 | 2.0 | 0.01 | 0.20 | 0.20 | 99 | 1008.8 |
| 20260510012614 | 74 | 209 | 0.0 | 1.0 | 0.02 | 0.20 | 0.20 | 98 | 1008.6 |
| 20260510012035 | 74 | 209 | 1.0 | 2.0 | 0.08 | 0.20 | 0.20 | 98 | 1008.6 |
| 20260510011535 | 74 | 209 | 1.0 | 2.0 | 0.10 | 0.20 | 0.20 | 98 | 1008.2 |
| 20260510011020 | 74 | 209 | 1.0 | 5.0 | 0.14 | 0.20 | 0.20 | 98 | 1008.3 |
| 20260510010751 | 74 | 209 | 2.0 | 5.0 | 0.15 | 0.20 | 0.20 | 97 | 1008.3 |
| 20260510010236 | 74 | 220 | 1.0 | 5.0 | 0.16 | 0.20 | 0.20 | 97 | 1008.1 |
| 20260510005444 | 74 | 57 | 1.0 | 4.0 | 0.19 | 0.20 | 0.20 | 97 | 1008.0 |
| 20260510004943 | 74 | 57 | 2.0 | 5.0 | 0.19 | 0.20 | 0.20 | 96 | 1007.7 |
| 20260510004714 | 74 | 56 | 3.0 | 6.0 | 0.19 | 0.20 | 0.20 | 95 | 1007.6 |
| 20260510003925 | 74 | 57 | 4.0 | 8.0 | 0.19 | 0.20 | 0.20 | 94 | 1007.6 |
| 20260510003400 | 74 | 67 | 5.0 | 10.0 | 0.18 | 0.19 | 0.19 | 94 | 1007.9 |
| 20260510002859 | 75 | 66 | 5.0 | 10.0 | 0.17 | 0.18 | 0.19 | 93 | 1007.9 |
| 20260510002333 | 76 | 64 | 5.0 | 12.0 | 0.15 | 0.15 | 0.16 | 93 | 1008.1 |
| 20260510001811 | 76 | 14 | 4.0 | 12.0 | 0.11 | 0.11 | 0.11 | 91 | 1008.1 |
| 20260510001250 | 78 | 41 | 2.0 | 8.0 | 0.06 | 0.06 | 0.06 | 91 | 1007.8 |
| 20260510000723 | 78 | 84 | 2.0 | 8.0 | 0.05 | 0.05 | 0.05 | 89 | 1007.6 |
| 20260510000221 | 79 | 84 | 4.0 | 11.0 | 0.04 | 0.04 | 0.04 | 87 | 1007.7 |
| 20260509235717 | 80 | 60 | 5.0 | 11.0 | 0.02 | 0.02 | 0.03 | 85 | 1007.8 |
| 20260509235151 | 80 | 70 | 4.0 | 7.0 | 0.01 | 0.01 | 0.01 | 84 | 1007.7 |
| 20260509234625 | 80 | 49 | 3.0 | 7.0 | 0.01 | 0.01 | 0.01 | 82 | 1007.8 |
| 20260509234601 | 80 | 97 | 3.0 | 7.0 | 0.01 | 0.01 | 0.01 | 77 | 1007.5 |
| 20260509233531 | 80 | 105 | 7.0 | 19.0 | 0.01 | 0.01 | 0.01 | 73 | 1007.3 |
| 20260509233004 | 82 | 189 | 9.0 | 19.0 | 0.01 | 0.01 | 0.01 | 66 | 1007.7 |
| 20260509232733 | 87 | 226 | 6.0 | 16.0 | 0.00 | 0.00 | 0.00 | 70 | 1007.8 |
| 20260509231933 | 91 | 158 | 3.0 | 10.0 | 0.00 | 0.00 | 0.00 | 65 | 1007.5 |
| 20260509230903 | 92 | 98 | 2.0 | 7.0 | 0.00 | 0.00 | 0.00 | 62 | 1007.3 |
| 20260509230632 | 92 | 81 | 2.0 | 6.0 | 0.00 | 0.00 | 0.00 | 62 | 1007.3 |
| 20260509225833 | 93 | 86 | 1.0 | 6.0 | 0.00 | 0.00 | 0.00 | 61 | 1007.1 |
| 20260509225308 | 93 | 114 | 2.0 | 6.0 | 0.00 | 0.00 | 0.00 | 59 | 1007.1 |
| 20260509225013 | 94 | 114 | 2.0 | 6.0 | 0.00 | 0.00 | 0.00 | 58 | 1007.1 |
| 20260509224237 | 95 | 141 | 1.0 | 6.0 | 0.00 | 0.00 | 0.00 | 57 | 1007.0 |
| 20260509223734 | 95 | 139 | 1.0 | 5.0 | 0.00 | 0.00 | 0.00 | 57 | 1007.1 |
| 20260509223503 | 96 | 63 | 2.0 | 7.0 | 0.00 | 0.00 | 0.00 | 57 | 1007.0 |
| 20260509222716 | 96 | 115 | 1.0 | 6.0 | 0.00 | 0.00 | 0.00 | 57 | 1007.0 |
| 20260509222705 | 96 | 70 | 2.0 | 7.0 | 0.00 | 0.00 | 0.00 | 56 | 1007.0 |
| 20260509221657 | 96 | 125 | 1.0 | 5.0 | 0.00 | 0.00 | 0.00 | 56 | 1006.9 |
| 20260509221154 | 96 | 29 | 1.0 | 5.0 | 0.00 | 0.00 | 0.00 | 57 | 1006.9 |
| 20260509220650 | 95 | 28 | 2.0 | 5.0 | 0.00 | 0.00 | 0.00 | 58 | 1006.9 |
| 20260509215646 | 94 | 287 | 2.0 | 7.0 | 0.00 | 0.00 | 0.00 | 58 | 1006.8 |
| 20260509215141 | 94 | 286 | 3.0 | 10.0 | 0.00 | 0.00 | 0.00 | 58 | 1006.9 |
| 20260509214614 | 94 | 20 | 2.0 | 10.0 | 0.00 | 0.00 | 0.00 | 60 | 1007.0 |
| 20260509214112 | 93 | 316 | 2.0 | 7.0 | 0.00 | 0.00 | 0.00 | 62 | 1006.9 |
| 20260509213551 | 93 | 239 | 3.0 | 7.0 | 0.00 | 0.00 | 0.00 | 61 | 1006.9 |
| 20260509213018 | 94 | 238 | 3.0 | 7.0 | 0.00 | 0.00 | 0.00 | 59 | 1007.0 |
| 20260509212515 | 95 | 297 | 2.0 | 7.0 | 0.00 | 0.00 | 0.00 | 59 | 1006.9 |
| 20260509211948 | 94 | 4 | 2.0 | 7.0 | 0.00 | 0.00 | 0.00 | 61 | 1006.9 |
| 20260509211446 | 95 | 298 | 2.0 | 7.0 | 0.00 | 0.00 | 0.00 | 59 | 1007.0 |
| 20260509210918 | 96 | 314 | 2.0 | 5.0 | 0.00 | 0.00 | 0.00 | 58 | 1007.1 |
| 20260509210417 | 95 | 308 | 2.0 | 5.0 | 0.00 | 0.00 | 0.00 | 58 | 1007.1 |
| 20260509205848 | 95 | 347 | 1.0 | 5.0 | 0.00 | 0.00 | 0.00 | 60 | 1007.2 |
| 20260509205346 | 95 | 359 | 2.0 | 9.0 | 0.00 | 0.00 | 0.00 | 59 | 1007.4 |
| 20260509204844 | 95 | 9 | 3.0 | 9.0 | 0.00 | 0.00 | 0.00 | 59 | 1007.4 |
| 20260509204542 | 96 | 338 | 2.0 | 8.0 | 0.00 | 0.00 | 0.00 | 59 | 1007.4 |
| 20260509203748 | 95 | 28 | 2.0 | 5.0 | 0.00 | 0.00 | 0.00 | 60 | 1007.4 |
| 20260509203225 | 95 | 335 | 2.0 | 9.0 | 0.00 | 0.00 | 0.00 | 59 | 1007.5 |
| 20260509202656 | 95 | 10 | 2.0 | 7.0 | 0.00 | 0.00 | 0.00 | 59 | 1007.6 |
| 20260509202425 | 94 | 21 | 3.0 | 5.0 | 0.00 | 0.00 | 0.00 | 59 | 1007.6 |
| 20260509201627 | 94 | 332 | 2.0 | 6.0 | 0.00 | 0.00 | 0.00 | 61 | 1007.6 |
| 20260509201335 | 93 | 9 | 2.0 | 6.0 | 0.00 | 0.00 | 0.00 | 62 | 1007.6 |
| 20260509200539 | 92 | 336 | 2.0 | 9.0 | 0.00 | 0.00 | 0.00 | 63 | 1007.7 |
| 20260509200011 | 92 | 293 | 3.0 | 9.0 | 0.00 | 0.00 | 0.00 | 61 | 1007.8 |
| 20260509195510 | 93 | 285 | 3.0 | 10.0 | 0.00 | 0.00 | 0.00 | 62 | 1007.9 |
| 20260509195240 | 93 | 318 | 3.0 | 10.0 | 0.00 | 0.00 | 0.00 | 63 | 1007.9 |
| 20260509194449 | 92 | 325 | 3.0 | 9.0 | 0.00 | 0.00 | 0.00 | 64 | 1008.0 |
| 20260509193949 | 92 | 14 | 2.0 | 8.0 | 0.00 | 0.00 | 0.00 | 64 | 1008.0 |
| 20260509193700 | 92 | 335 | 1.0 | 6.0 | 0.00 | 0.00 | 0.00 | 67 | 1008.1 |
| 20260509192931 | 91 | 192 | 0.0 | 7.0 | 0.00 | 0.00 | 0.00 | 67 | 1008.0 |
| 20260509192425 | 89 | 199 | 2.0 | 7.0 | 0.00 | 0.00 | 0.00 | 67 | 1008.2 |
| 20260509191925 | 90 | 246 | 3.0 | 7.0 | 0.00 | 0.00 | 0.00 | 67 | 1008.2 |
| 20260509191408 | 90 | 322 | 2.0 | 7.0 | 0.00 | 0.00 | 0.00 | 69 | 1008.3 |
| 20260509190910 | 89 | 288 | 1.0 | 3.0 | 0.00 | 0.00 | 0.00 | 68 | 1008.3 |
| 20260509190353 | 89 | 320 | 2.0 | 7.0 | 0.00 | 0.00 | 0.00 | 68 | 1008.3 |
| 20260509185858 | 89 | 304 | 2.0 | 7.0 | 0.00 | 0.00 | 0.00 | 69 | 1008.3 |
| 20260509185335 | 89 | 228 | 3.0 | 8.0 | 0.00 | 0.00 | 0.00 | 70 | 1008.3 |
| 20260509184810 | 89 | 123 | 4.0 | 8.0 | 0.00 | 0.00 | 0.00 | 70 | 1008.3 |
| 20260509184255 | 88 | 153 | 2.0 | 7.0 | 0.00 | 0.00 | 0.00 | 70 | 1008.5 |
| 20260509183728 | 87 | 228 | 3.0 | 9.0 | 0.00 | 0.00 | 0.00 | 74 | 1008.6 |
| 20260509183207 | 86 | 192 | 4.0 | 9.0 | 0.00 | 0.00 | 0.00 | 74 | 1008.7 |
| 20260509182642 | 86 | 249 | 3.0 | 10.0 | 0.00 | 0.00 | 0.00 | 75 | 1008.7 |
| 20260509182142 | 86 | 223 | 3.0 | 10.0 | 0.00 | 0.00 | 0.00 | 75 | 1008.8 |
| 20260509181640 | 86 | 154 | 3.0 | 8.0 | 0.00 | 0.00 | 0.00 | 77 | 1009.0 |
| 20260509181345 | 86 | 171 | 3.0 | 9.0 | 0.00 | 0.00 | 0.00 | 77 | 1009.1 |
| 20260509180549 | 85 | 168 | 4.0 | 9.0 | 0.00 | 0.00 | 0.00 | 77 | 1009.3 |
| 20260509180034 | 85 | 212 | 4.0 | 9.0 | 0.00 | 0.00 | 0.00 | 78 | 1009.5 |
| 20260509175806 | 85 | 242 | 4.0 | 8.0 | 0.00 | 0.00 | 0.00 | 80 | 1009.5 |
| 20260509175009 | 85 | 249 | 4.0 | 10.0 | 0.00 | 0.00 | 0.00 | 80 | 1009.5 |
| 20260509174505 | 85 | 270 | 4.0 | 10.0 | 0.00 | 0.01 | 0.00 | 80 | 1009.5 |
| 20260509174211 | 84 | 97 | 5.0 | 10.0 | 0.00 | 0.01 | 0.00 | 81 | 1009.5 |
| 20260509173646 | 84 | 206 | 5.0 | 12.0 | 0.00 | 0.01 | 0.00 | 82 | 1009.5 |
| 20260509172857 | 83 | 193 | 4.0 | 12.0 | 0.00 | 0.01 | 0.00 | 83 | 1009.6 |
| 20260509172617 | 83 | 248 | 3.0 | 10.0 | 0.00 | 0.01 | 0.00 | 84 | 1009.7 |
| 20260509171843 | 83 | 222 | 3.0 | 7.0 | 0.00 | 0.01 | 0.00 | 85 | 1009.8 |
| 20260509171317 | 83 | 199 | 3.0 | 7.0 | 0.00 | 0.01 | 0.00 | 86 | 1010.0 |
| 20260509170749 | 82 | 195 | 2.0 | 6.0 | 0.00 | 0.02 | 0.00 | 86 | 1010.0 |
| 20260509170247 | 82 | 197 | 2.0 | 6.0 | 0.00 | 0.02 | 0.00 | 87 | 1010.0 |
| 20260509170221 | 82 | 193 | 3.0 | 7.0 | 0.00 | 0.02 | 0.00 | 87 | 1010.1 |
| 20260509165216 | 82 | 197 | 3.0 | 7.0 | 0.00 | 0.02 | 0.00 | 86 | 1010.1 |
| 20260509164648 | 82 | 187 | 2.0 | 5.0 | 0.00 | 0.02 | 0.00 | 86 | 1010.0 |
| 20260509164145 | 82 | 196 | 2.0 | 5.0 | 0.00 | 0.02 | 0.00 | 86 | 1010.0 |
| 20260509163643 | 82 | 195 | 1.0 | 7.0 | 0.00 | 0.03 | 0.00 | 86 | 1010.0 |
| 20260509163413 | 82 | 270 | 0.0 | 3.0 | 0.00 | 0.03 | 0.00 | 87 | 1010.0 |
| 20260509162617 | 82 | 297 | 1.0 | 3.0 | 0.00 | 0.03 | 0.00 | 86 | 1010.0 |
| 20260509162611 | 82 | 297 | 1.0 | 4.0 | 0.00 | 0.03 | 0.00 | 86 | 1009.9 |
| 20260509161606 | 82 | 260 | 1.0 | 4.0 | 0.00 | 0.03 | 0.00 | 86 | 1010.1 |
| 20260509161107 | 82 | 310 | 1.0 | 4.0 | 0.00 | 0.03 | 0.00 | 86 | 1010.1 |
| 20260509160600 | 82 | 317 | 2.0 | 5.0 | 0.00 | 0.03 | 0.00 | 86 | 1010.0 |
| 20260509160034 | 82 | 316 | 1.0 | 5.0 | 0.00 | 0.03 | 0.00 | 87 | 1010.0 |
| 20260509155531 | 82 | 259 | 1.0 | 4.0 | 0.00 | 0.03 | 0.00 | 87 | 1009.9 |
| 20260509155003 | 82 | 239 | 0.0 | 4.0 | 0.00 | 0.03 | 0.00 | 87 | 1009.9 |
| 20260509154500 | 81 | 138 | 0.0 | 0.0 | 0.00 | 0.03 | 0.00 | 88 | 1009.9 |
| 20260509153936 | 81 | 137 | 0.0 | 0.0 | 0.00 | 0.03 | 0.00 | 89 | 1009.9 |
| 20260509153431 | 81 | 137 | 0.0 | 0.0 | 0.00 | 0.03 | 0.00 | 91 | 1009.8 |
| 20260509152903 | 80 | 137 | 0.0 | 0.0 | 0.00 | 0.03 | 0.00 | 92 | 1009.8 |
| 20260509152401 | 80 | 137 | 0.0 | 0.0 | 0.00 | 0.03 | 0.00 | 93 | 1010.0 |
| 20260509151833 | 79 | 137 | 0.0 | 0.0 | 0.00 | 0.03 | 0.00 | 93 | 1010.0 |
| 20260509151602 | 79 | 137 | 0.0 | 0.0 | 0.00 | 0.04 | 0.00 | 94 | 1010.0 |
| 20260509150806 | 79 | 137 | 0.0 | 0.0 | 0.00 | 0.04 | 0.00 | 94 | 1010.0 |
| 20260509150304 | 78 | 137 | 0.0 | 0.0 | 0.00 | 0.04 | 0.00 | 95 | 1009.9 |
| 20260509145735 | 78 | 137 | 0.0 | 0.0 | 0.00 | 0.04 | 0.00 | 96 | 1009.7 |
| 20260509145205 | 78 | 137 | 0.0 | 0.0 | 0.00 | 0.04 | 0.00 | 97 | 1009.7 |
| 20260509144703 | 78 | 138 | 0.0 | 0.0 | 0.00 | 0.04 | 0.00 | 97 | 1009.8 |
| 20260509144208 | 77 | 138 | 0.0 | 0.0 | 0.00 | 0.04 | 0.00 | 97 | 1009.7 |
| 20260509143646 | 77 | 137 | 0.0 | 2.0 | 0.00 | 0.04 | 0.00 | 97 | 1009.6 |